Find Galaxy 8i

NORAD ID: 25086 Int'l Des: 1997-078 Owner: PAN Country: US operational
HEOCIRCULAR

当前视图

正在加载3D地球...

About Galaxy 8i

Galaxy 8i (NORAD 25086) is a satellite launched Dec 8, 1997 by PAN of US. It operates in HEO, CIRCULAR orbit with a mass of 3558.00 kg.

即将过境

Passes for default location (London). Set your location on the main map for personalized predictions.

高度历史

Loading altitude history...

两行轨道根数

1 25086U 97078A 26194.73885997 -.00000100 00000-0 00000+0 0 9991
2 25086 14.0663 9.6952 0007423 64.3108 302.1532 0.99707232104215
Epoch: Jul 13, 2026 • Age: 18 hours

当前状态

高度 35974.3 km
远地点 / 近地点 N/A
速度 3.07 km/s
星下点 -13.94°S, 177.22°E
发射日期 Dec 8, 1997
运行时间 28.5 years
类型 other

技术详情

分类 Payload
质量 3558.00 kg
干质量 1962.00 kg
总质量 3558.00 kg
长度 4.00 m
直径 3.20 m
跨度 26.20 m
形状 Box + 2 Pan
制造商 HSES
平台类型 HS-601HP
阶段状态 Renamed
所有者/国家 PAN/US

Most Searched